Terug naar catalogus

STARLINK-30843

ActiefCommunicatieVLEO
NORAD 58241·PAYLOAD·🇺🇸 United States

Gelanceerd Nov 8, 2023 vanaf Cape Canaveral Space Force Station

Loading…

Volgende Passages (komende 24 uur)

TLE

VersSource: CelesTrak SupGP

Epoch: Sep 15, 2026, 03:30 UTC

1 58241C 23171M   26258.14631944  .00006637  00000+0  24035-3 0  2585
2 58241  43.0002 295.4102 0001386 261.7813 248.2291 15.27580713    18

Volg STARLINK-30843 in realtime met AllMySat

Download on the App Store